Regional Weather Roundup
Issued by NWS

Home | Current Version | Previous Version | Graphics & Text | Print | Product List | Glossary On
Versions: 1 2 3 4 5 6 7 8 9 10 11 12 13 14 15 16 17 18 19 20 21 22 23 24 25 26 27 28 29 30 31 32 33 34 35 36 37 38 39 40 41 42 43 44 45 46 47 48 49 50
000
ASUS43 KLMK 270110
RWRKY
KENTUCKY REGIONAL WEATHER ROUNDUP
NATIONAL WEATHER SERVICE LOUISVILLE KY
900 PM EDT MON JUN 26 2017

NOTE "FAIR" INDICATES FEW OR NO CLOUDS BELOW 12,000 FEET
WITH NO SIGNIFICANT WEATHER AND/OR OBSTRUCTIONS TO VISIBILITY.

KYZ001>023-026-027-061>063-070>075-270200-
WESTERN AND SOUTH CENTRAL KENTUCKY

CITY           SKY/WX    TMP DP  RH WIND       PRES   REMARKS
PADUCAH        CLOUDY    72  56  57 S5        30.08F
HENDERSON      CLOUDY    68  55  63 SE7       30.04F
OWENSBORO      CLOUDY    72  52  49 N3        30.09F
HOPKINSVILLE   CLOUDY    72  52  49 N5        30.10S
BOWLING GREEN  PTCLDY    74  52  46 CALM      30.10S
GLASGOW        CLOUDY    71  52  51 CALM      30.10S
$$

KYZ024-025-028>034-038-045-046-053-270200-
NORTH CENTRAL KENTUCKY

CITY           SKY/WX    TMP DP  RH WIND       PRES   REMARKS
LOUISVILLE/SDF CLOUDY    72  48  42 NW12      30.07F
LOUISVILLE/LOU CLOUDY    73  49  42 NW6       30.08F
FORT KNOX      CLOUDY    68  52  56 CALM      30.07F
$$

KYZ035>037-039>044-047>052-055>060-089>105-270200-
NORTHEAST KENTUCKY

CITY           SKY/WX    TMP DP  RH WIND       PRES   REMARKS
LEXINGTON      CLOUDY    69  51  52 W3        30.09R
COVINGTON      CLOUDY    67  49  52 W6        30.06F
FRANKFORT      CLOUDY    70  49  47 NW5       30.08R
$$

KYZ054-064>069-076>088-106>120-270200-
SOUTHEAST KENTUCKY

CITY           SKY/WX    TMP DP  RH WIND       PRES   REMARKS
JACKSON        CLEAR     68  48  48 W3        30.10F
LONDON         CLEAR     70  49  47 VRB3      30.10S
SOMERSET       CLOUDY    70  48  46 W3        30.11S
MIDDLESBORO    CLEAR     67  54  62 W3        30.10F
MONTICELLO     CLEAR     64  57  78 N12       30.12R
$$





USA.gov is the U.S. government's official web portal to all federal, state and local government web resources and services.